Denver Centennial, CO

2:21 PM MDT on June 26, 2017 (GMT -0600)
Centennial

Weather History for KAPA - August, 2014

Change the Weather History Date:

Sunday, August 10, 2014

  Actual Average Record
Temperature  
Mean Temperature 65 °F -  
Max Temperature 74 °F 82 °F 93 °F (2016)
Min Temperature 56 °F 54 °F 52 °F (2013)
Growing Degree Days 15 (Base 50)    
Moisture  
Dew Point 50 °F    
Average Humidity 61    
Maximum Humidity 77    
Minimum Humidity 44    
Precipitation  
Precipitation T in - - ()
Month to date precipitation 0.89  
Year to date precipitation 10.40  
Sea Level Pressure  
Sea Level Pressure 30.23 in    
Wind  
Wind Speed 6 mph (WSW)    
Max Wind Speed 15 mph    
Max Gust Speed 17 mph    
Visibility 10 miles    
Events Thunderstorm    
Averages and records for this station are not official NWS values.
T = Trace of Precipitation, MM = Missing Value Source: NWS Daily Summary

Daily Weather History Graph

Daily Weather History Graph

Search for Another Location

Airport or City:

Trip Planner

Search our weather history database for the weather conditions in past years. The results will help you decide how hot, cold, wet, or windy it might be!

Date:

Astronomy

Aug. 10, 2014 Rise Set
Actual Time 6:07 AM MDT 8:01 PM MDT
Civil Twilight 5:37 AM MDT 8:30 PM MDT
Nautical Twilight 5:02 AM MDT 9:06 PM MDT
Astronomical Twilight 4:23 AM MDT 9:44 PM MDT
Moon 7:50 PM MDT (8/10) 6:02 AM MDT (8/10)
Length of Visible Light 14h 52m
Length of Day
13h 54m
Full, 100% of the Moon is Illuminated
Aug 10
Full
Aug 10
Full
Aug 17
Last Quarter
Aug 25
New
Sep 2
First Quarter

Hourly Weather History & Observations

Time (MDT) Temp. Dew Point Humidity Pressure Visibility Wind Dir Wind Speed Gust Speed Precip Events Conditions
12:53 AM 59.0 °F 50.0 °F 72% 30.13 in 10.0 mi WSW 4.6 mph - N/A   Scattered Clouds
1:53 AM 57.9 °F 48.9 °F 72% 30.18 in 10.0 mi SSW 3.5 mph - N/A   Partly Cloudy
2:53 AM 60.1 °F 48.0 °F 64% 30.17 in 10.0 mi West 5.8 mph - N/A   Mostly Cloudy
3:53 AM 60.1 °F 46.9 °F 62% 30.18 in 10.0 mi West 8.1 mph - N/A   Mostly Cloudy
4:53 AM 60.1 °F 46.9 °F 62% 30.18 in 10.0 mi West 6.9 mph - N/A   Mostly Cloudy
5:53 AM 59.0 °F 48.9 °F 69% 30.19 in 10.0 mi WNW 5.8 mph - 0.00 in   Scattered Clouds
6:53 AM 57.9 °F 50.0 °F 75% 30.19 in 10.0 mi WSW 5.8 mph - N/A   Scattered Clouds
8:53 AM 64.9 °F 51.1 °F 61% 30.24 in 10.0 mi ENE 4.6 mph - N/A   Scattered Clouds
9:53 AM 66.9 °F 51.1 °F 57% 30.24 in 10.0 mi NNE 5.8 mph - N/A   Scattered Clouds
10:53 AM 69.1 °F 51.1 °F 53% 30.24 in 10.0 mi North 9.2 mph - N/A   Scattered Clouds
11:53 AM 71.1 °F 52.0 °F 51% 30.24 in 10.0 mi NNW 9.2 mph - N/A   Scattered Clouds
12:53 PM 73.0 °F 51.1 °F 46% 30.22 in 10.0 mi Variable 5.8 mph - N/A   Mostly Cloudy
2:53 PM 73.0 °F 51.1 °F 46% 30.20 in 10.0 mi North 4.6 mph - N/A   Mostly Cloudy
3:53 PM 73.0 °F 50.0 °F 44% 30.21 in 10.0 mi Variable 3.5 mph - N/A   Mostly Cloudy
4:22 PM 73.0 °F 48.0 °F 41% 30.37 in 10.0 mi Variable 3.5 mph - N/A Thunderstorm Thunderstorm
4:53 PM 72.0 °F 48.9 °F 44% 30.20 in 10.0 mi Calm Calm - N/A Thunderstorm Thunderstorm
5:16 PM 72.0 °F 50.0 °F 46% 30.36 in 10.0 mi South 9.2 mph - N/A   Mostly Cloudy
5:53 PM 68.0 °F 52.0 °F 56% 30.21 in 10.0 mi SSW 10.4 mph - N/A Thunderstorm Thunderstorm
6:53 PM 68.0 °F 48.9 °F 50% 30.21 in 10.0 mi East 3.5 mph - 0.00 in Thunderstorm Thunderstorm
7:29 PM 68.0 °F 52.0 °F 56% 30.37 in 10.0 mi SW 8.1 mph - N/A   Mostly Cloudy
7:53 PM 66.9 °F 51.1 °F 57% 30.22 in 10.0 mi WSW 10.4 mph - N/A   Mostly Cloudy
8:53 PM 64.9 °F 51.1 °F 61% 30.22 in 10.0 mi SW 9.2 mph - N/A   Mostly Cloudy
10:53 PM 60.1 °F 50.0 °F 69% 30.25 in 10.0 mi South 3.5 mph - N/A   Mostly Cloudy
11:53 PM 59.0 °F 48.9 °F 69% 30.25 in 10.0 mi SE 3.5 mph - N/A   Mostly Cloudy